星链-34668 (STARLINK-34668)

导读

STARLINK-34668是美国太空探索技术公司(SpaceX)于2025年7月16日发射的星链系列卫星,隶属于星链低轨卫星互联网星座。星链是全球规模最大的低轨卫星互联网项目,截至2025年7月,SpaceX已累计发射超9000颗星链卫星,该卫星旨在扩充星链星座容量,为全球提供高速卫星互联网接入服务,助力星链向第三代系统升级过渡,进一步提升全球网络覆盖与通信性能。

基本信息
目录编号:
64814
目录名称:
STARLINK-34668
国际标识:
2025-150AA
轨道中心:
EARTH
卫星名称:
星链-34668
卫星全名:
星链-34668 (STARLINK-34668)
卫星状态:
在轨 (已飞行332 天)
发射日期:
2025-07-16 UTC
国别 :
美国 (US)
星等 :
--
轨道信息
数据来源 国际轨道数据
星历时间: 2026-06-13T22:06:35+0800
7小时前
查看轨道信息
半长轴: 6950.103km
偏心率: 0.0003454
轨道倾角: 70.001°
近地点辐角 270.782°
升交点赤经 252.564°
平近点角 89.294°
近地点: 569.565km
远地点: 574.367km
周期: 96.105分钟
每日圈数: 14.983593
详细信息
固有亮度:
5
最大亮度:
2.5
卫星平台:
Starlink V1.0
覆盖范围:
全球
运营商:
太空探索技术公司
运营商所在国:
美国
制造商(研发单位):
太空探索技术公司
制造商所在国:
美国
使用方式:
暂无
卫星简介
Starlink 计划是 SpaceX 推出的全球卫星互联网项目,通过发射低轨道卫星,为全球尤其是偏远地区提供高速、低延迟的互联网服务。自 2019 年起,Starlink 已部署数千颗卫星,旨在缩小全球数字鸿沟,推动互联网普及。该项目还为军事、航空等行业提供通信支持,带来广泛经济效益。
2D轨道图
3D轨道图
轨道高度分析图
轨道倾角分析图
轨道综合分析图
查看轨道综合分析图